Satellite: HRBE Catalog number: 37855 Epoch time: 15050.41535485 Element set: 999 Inclination: 101.7144 deg RA of node: 205.5587 deg Eccentricity: 0.0200731 Arg of perigee: 057.0597 deg Mean anomaly: 304.9738 deg Mean motion: 14.95070620 rev/day Decay rate: 7.307e-05 rev/day^2 Epoch rev: 17954 Checksum: 316
Satellite: RS-39 Catalog number: 38051 Epoch time: 14288.65876392 Element set: 999 Inclination: 051.5964 deg RA of node: 324.1908 deg Eccentricity: 0.0006422 Arg of perigee: 269.6897 deg Mean anomaly: 186.8903 deg Mean motion: 16.43533377 rev/day Decay rate: 7.0201582e-01 rev/day^2 Epoch rev: 15308 Checksum: 367
Satellite: E-STAR Catalog number: 38079 Epoch time: 15016.13455217 Element set: 999 Inclination: 069.3967 deg RA of node: 125.0648 deg Eccentricity: 0.0013168 Arg of perigee: 047.0341 deg Mean anomaly: 316.5109 deg Mean motion: 16.44007688 rev/day Decay rate: 1.7990388e-01 rev/day^2 Epoch rev: 15619 Checksum: 340
Satellite: GOLIAT Catalog number: 38085 Epoch time: 15047.13271005 Element set: 999 Inclination: 069.4022 deg RA of node: 049.8202 deg Eccentricity: 0.0017770 Arg of perigee: 344.8867 deg Mean anomaly: 016.3100 deg Mean motion: 16.44194733 rev/day Decay rate: 1.5174231e-01 rev/day^2 Epoch rev: 16069 Checksum: 300
Satellite: HORYU-2 Catalog number: 38340 Epoch time: 15049.39320411 Element set: 999 Inclination: 098.3000 deg RA of node: 016.4054 deg Eccentricity: 0.0013468 Arg of perigee: 112.4182 deg Mean anomaly: 247.8453 deg Mean motion: 14.73763946 rev/day Decay rate: 2.307e-05 rev/day^2 Epoch rev: 14803 Checksum: 290
Satellite: RS-40 Catalog number: 38735 Epoch time: 15050.31432770 Element set: 999 Inclination: 082.4788 deg RA of node: 133.4819 deg Eccentricity: 0.0017594 Arg of perigee: 079.8194 deg Mean anomaly: 280.4869 deg Mean motion: 12.42567449 rev/day Decay rate: 4.0e-07 rev/day^2 Epoch rev: 11627 Checksum: 338
Satellite: PROITERES Catalog number: 38756 Epoch time: 15050.48986184 Element set: 999 Inclination: 098.2185 deg RA of node: 147.8333 deg Eccentricity: 0.0011603 Arg of perigee: 318.4162 deg Mean anomaly: 041.6160 deg Mean motion: 14.75563379 rev/day Decay rate: 1.035e-05 rev/day^2 Epoch rev: 13164 Checksum: 313
Satellite: BEESAT-3 Catalog number: 39134 Epoch time: 15050.08801882 Element set: 999 Inclination: 064.8729 deg RA of node: 074.7688 deg Eccentricity: 0.0034587 Arg of perigee: 269.1275 deg Mean anomaly: 090.5885 deg Mean motion: 15.09935754 rev/day Decay rate: 8.539e-05 rev/day^2 Epoch rev: 10085 Checksum: 362
Satellite: BEESAT-2 Catalog number: 39136 Epoch time: 15050.22776236 Element set: 999 Inclination: 064.8735 deg RA of node: 075.8642 deg Eccentricity: 0.0035175 Arg of perigee: 268.9547 deg Mean anomaly: 090.7545 deg Mean motion: 15.08673160 rev/day Decay rate: 7.957e-05 rev/day^2 Epoch rev: 10085 Checksum: 342
Satellite: LO-75 Catalog number: 39382 Epoch time: 14295.69194059 Element set: 999 Inclination: 040.4713 deg RA of node: 030.2705 deg Eccentricity: 0.0002289 Arg of perigee: 341.7175 deg Mean anomaly: 018.4586 deg Mean motion: 16.19795749 rev/day Decay rate: 7.301741e-02 rev/day^2 Epoch rev: 47082 Checksum: 353
Satellite: ZACUBE-1 Catalog number: 39417 Epoch time: 15049.63916167 Element set: 999 Inclination: 097.7441 deg RA of node: 116.5571 deg Eccentricity: 0.0061764 Arg of perigee: 161.5105 deg Mean anomaly: 198.8372 deg Mean motion: 14.79234569 rev/day Decay rate: 2.038e-05 rev/day^2 Epoch rev: 6710 Checksum: 335
Satellite: TRITON-1 Catalog number: 39427 Epoch time: 15049.41829332 Element set: 999 Inclination: 097.7308 deg RA of node: 107.0881 deg Eccentricity: 0.0116908 Arg of perigee: 185.5490 deg Mean anomaly: 174.4428 deg Mean motion: 14.66272905 rev/day Decay rate: 1.625e-05 rev/day^2 Epoch rev: 6646 Checksum: 337
Satellite: DELFIN3XT Catalog number: 39428 Epoch time: 15049.44804528 Element set: 999 Inclination: 097.7310 deg RA of node: 105.6603 deg Eccentricity: 0.0125825 Arg of perigee: 189.5889 deg Mean anomaly: 170.2912 deg Mean motion: 14.64748577 rev/day Decay rate: 2.881e-05 rev/day^2 Epoch rev: 6635 Checksum: 351
Satellite: GOMX-1 Catalog number: 39430 Epoch time: 15050.36768579 Element set: 999 Inclination: 097.7248 deg RA of node: 101.9144 deg Eccentricity: 0.0154150 Arg of perigee: 200.4626 deg Mean anomaly: 159.0356 deg Mean motion: 14.57684664 rev/day Decay rate: 1.617e-05 rev/day^2 Epoch rev: 6621 Checksum: 321
Satellite: MO-76 Catalog number: 39436 Epoch time: 15049.75035347 Element set: 999 Inclination: 097.7526 deg RA of node: 125.7028 deg Eccentricity: 0.0023338 Arg of perigee: 143.6337 deg Mean anomaly: 216.6477 deg Mean motion: 15.00407132 rev/day Decay rate: 2.3659e-04 rev/day^2 Epoch rev: 6769 Checksum: 342
Satellite: LO-74 Catalog number: 39440 Epoch time: 15050.11084032 Element set: 999 Inclination: 097.7392 deg RA of node: 113.3385 deg Eccentricity: 0.0083349 Arg of perigee: 168.4514 deg Mean anomaly: 191.8633 deg Mean motion: 14.74091353 rev/day Decay rate: 1.559e-05 rev/day^2 Epoch rev: 6693 Checksum: 326
Satellite: PUCPSAT-1 Catalog number: 39442 Epoch time: 15049.48369795 Element set: 999 Inclination: 097.7521 deg RA of node: 122.2172 deg Eccentricity: 0.0034450 Arg of perigee: 153.0522 deg Mean anomaly: 207.2493 deg Mean motion: 14.87825947 rev/day Decay rate: 3.200e-05 rev/day^2 Epoch rev: 6621 Checksum: 313
Satellite: SHINAISAT Catalog number: 39572 Epoch time: 14328.13084988 Element set: 999 Inclination: 064.9728 deg RA of node: 197.0096 deg Eccentricity: 0.0013534 Arg of perigee: 259.7861 deg Mean anomaly: 100.1802 deg Mean motion: 16.45181032 rev/day Decay rate: 2.8848087e-01 rev/day^2 Epoch rev: 4240 Checksum: 336
Satellite: TEIKYOSAT Catalog number: 39576 Epoch time: 14297.85867254 Element set: 999 Inclination: 064.9818 deg RA of node: 300.5833 deg Eccentricity: 0.0008491 Arg of perigee: 317.3597 deg Mean anomaly: 044.3862 deg Mean motion: 16.45008906 rev/day Decay rate: 9.345816e-02 rev/day^2 Epoch rev: 3769 Checksum: 372
Satellite: CO-77 Catalog number: 39577 Epoch time: 14244.78324653 Element set: 999 Inclination: 064.9920 deg RA of node: 123.7668 deg Eccentricity: 0.0014904 Arg of perigee: 269.7208 deg Mean anomaly: 091.1897 deg Mean motion: 16.43552757 rev/day Decay rate: 1.0543803e-01 rev/day^2 Epoch rev: 2938 Checksum: 371
Satellite: SPROUT Catalog number: 39770 Epoch time: 15050.09011176 Element set: 999 Inclination: 097.8681 deg RA of node: 148.5801 deg Eccentricity: 0.0009172 Arg of perigee: 223.0258 deg Mean anomaly: 137.0274 deg Mean motion: 14.83440267 rev/day Decay rate: 1.528e-05 rev/day^2 Epoch rev: 4012 Checksum: 290
Satellite: POPSAT-HIP1 Catalog number: 40028 Epoch time: 15050.40806555 Element set: 999 Inclination: 097.9672 deg RA of node: 310.5254 deg Eccentricity: 0.0013609 Arg of perigee: 204.0463 deg Mean anomaly: 156.0124 deg Mean motion: 14.86410645 rev/day Decay rate: 2.489e-05 rev/day^2 Epoch rev: 3628 Checksum: 293
Satellite: EO-80 Catalog number: 40032 Epoch time: 15050.31339337 Element set: 999 Inclination: 097.9619 deg RA of node: 310.2174 deg Eccentricity: 0.0012066 Arg of perigee: 198.8774 deg Mean anomaly: 161.1977 deg Mean motion: 14.86143473 rev/day Decay rate: 2.428e-05 rev/day^2 Epoch rev: 3627 Checksum: 321
Satellite: VELOX-1 Catalog number: 40057 Epoch time: 15050.41269163 Element set: 999 Inclination: 098.2262 deg RA of node: 126.5875 deg Eccentricity: 0.0010548 Arg of perigee: 254.0695 deg Mean anomaly: 105.9346 deg Mean motion: 14.75227226 rev/day Decay rate: 2.484e-05 rev/day^2 Epoch rev: 3451 Checksum: 305
Satellite: DAURIA DX 1 Catalog number: 40071 Epoch time: 15050.44244876 Element set: 999 Inclination: 098.3708 deg RA of node: 116.9613 deg Eccentricity: 0.0007677 Arg of perigee: 257.3061 deg Mean anomaly: 102.7298 deg Mean motion: 14.80103489 rev/day Decay rate: 1.155e-05 rev/day^2 Epoch rev: 3337 Checksum: 306
Satellite: UKUBE-1 Catalog number: 40074 Epoch time: 15050.47501630 Element set: 999 Inclination: 098.3718 deg RA of node: 117.4346 deg Eccentricity: 0.0003890 Arg of perigee: 264.8131 deg Mean anomaly: 095.2647 deg Mean motion: 14.81585875 rev/day Decay rate: 2.469e-05 rev/day^2 Epoch rev: 3340 Checksum: 312
Satellite: CHASQUI-1 Catalog number: 40117 Epoch time: 15014.73322295 Element set: 999 Inclination: 051.6189 deg RA of node: 112.4445 deg Eccentricity: 0.0004239 Arg of perigee: 337.2783 deg Mean anomaly: 022.7551 deg Mean motion: 16.34635278 rev/day Decay rate: 7.508583e-02 rev/day^2 Epoch rev: 2336 Checksum: 310
Satellite: HODOYOSHI-1 Catalog number: 40299 Epoch time: 15050.48088193 Element set: 999 Inclination: 097.4634 deg RA of node: 133.5222 deg Eccentricity: 0.0013241 Arg of perigee: 178.7125 deg Mean anomaly: 276.3461 deg Mean motion: 15.18178327 rev/day Decay rate: 4.751e-05 rev/day^2 Epoch rev: 1595 Checksum: 315
Satellite: CHUBUSAT-1 Catalog number: 40300 Epoch time: 15050.48382209 Element set: 999 Inclination: 097.4615 deg RA of node: 133.1699 deg Eccentricity: 0.0022825 Arg of perigee: 180.4985 deg Mean anomaly: 234.8171 deg Mean motion: 15.16263642 rev/day Decay rate: 6.382e-05 rev/day^2 Epoch rev: 1593 Checksum: 308
Satellite: QSAT-EOS Catalog number: 40301 Epoch time: 15050.75902856 Element set: 999 Inclination: 097.4598 deg RA of node: 133.0521 deg Eccentricity: 0.0033813 Arg of perigee: 180.5784 deg Mean anomaly: 179.5928 deg Mean motion: 15.14582609 rev/day Decay rate: 1.8088e-04 rev/day^2 Epoch rev: 1595 Checksum: 331
Satellite: TSUBAME Catalog number: 40302 Epoch time: 15050.35852917 Element set: 999 Inclination: 097.4557 deg RA of node: 132.2127 deg Eccentricity: 0.0044293 Arg of perigee: 183.5252 deg Mean anomaly: 264.5004 deg Mean motion: 15.11548906 rev/day Decay rate: 6.610e-05 rev/day^2 Epoch rev: 1586 Checksum: 292
